TimeCDT,TemperatureF,Dew PointF,Humidity,Sea Level PressureIn,VisibilityMPH,Wind Direction,Wind SpeedMPH,Gust SpeedMPH,PrecipitationIn,Events,Conditions,WindDirDegrees,DateUTC
12:52 AM,70.0,68.0,93,30.01,9.0,WNW,3.5,-,N/A,,Clear,290,2013-09-12 05:52:00
1:52 AM,69.1,66.9,93,30.02,10.0,WSW,4.6,-,N/A,,Clear,250,2013-09-12 06:52:00
2:52 AM,68.0,64.9,90,30.03,10.0,WSW,4.6,-,N/A,,Clear,240,2013-09-12 07:52:00
3:52 AM,66.9,63.0,87,30.03,10.0,WSW,3.5,-,N/A,,Clear,240,2013-09-12 08:52:00
4:52 AM,64.0,61.0,90,30.03,10.0,Calm,Calm,-,N/A,,Clear,0,2013-09-12 09:52:00
5:52 AM,62.1,60.1,93,30.04,10.0,West,4.6,-,N/A,,Clear,280,2013-09-12 10:52:00
6:52 AM,63.0,60.1,90,30.04,10.0,SW,3.5,-,N/A,,Clear,230,2013-09-12 11:52:00
7:52 AM,66.9,63.0,87,30.05,8.0,WSW,4.6,-,N/A,,Partly Cloudy,250,2013-09-12 12:52:00
8:52 AM,70.0,59.0,68,30.05,10.0,WNW,5.8,-,N/A,,Clear,300,2013-09-12 13:52:00
9:52 AM,73.9,55.9,53,30.06,10.0,NW,9.2,-,N/A,,Clear,320,2013-09-12 14:52:00
10:52 AM,77.0,54.0,45,30.06,10.0,NW,11.5,-,N/A,,Clear,310,2013-09-12 15:52:00
11:52 AM,78.1,48.9,36,30.06,10.0,NNW,16.1,23.0,N/A,,Clear,330,2013-09-12 16:52:00
12:52 PM,80.1,45.0,29,30.06,10.0,NNW,16.1,24.2,N/A,,Clear,330,2013-09-12 17:52:00
1:52 PM,81.0,46.0,29,30.05,10.0,NW,16.1,24.2,N/A,,Clear,310,2013-09-12 18:52:00
2:52 PM,81.0,46.9,30,30.04,10.0,NNW,13.8,27.6,N/A,,Clear,330,2013-09-12 19:52:00
3:52 PM,79.0,43.0,28,30.04,10.0,NW,16.1,26.5,N/A,,Clear,310,2013-09-12 20:52:00
4:52 PM,79.0,43.0,28,30.04,10.0,NNW,13.8,20.7,N/A,,Clear,330,2013-09-12 21:52:00
5:52 PM,75.9,44.1,32,30.05,10.0,NW,17.3,24.2,N/A,,Clear,320,2013-09-12 22:52:00
6:52 PM,73.0,46.0,38,30.06,10.0,NNW,11.5,18.4,N/A,,Partly Cloudy,330,2013-09-12 23:52:00
7:52 PM,71.1,46.0,41,30.08,10.0,North,4.6,-,N/A,,Clear,350,2013-09-13 00:52:00
8:52 PM,68.0,46.0,45,30.10,10.0,North,8.1,-,N/A,,Clear,350,2013-09-13 01:52:00
9:52 PM,66.0,46.9,50,30.11,10.0,NNW,5.8,-,N/A,,Clear,340,2013-09-13 02:52:00
10:52 PM,64.9,46.9,52,30.12,10.0,NNW,5.8,-,N/A,,Clear,340,2013-09-13 03:52:00
11:52 PM,64.0,48.0,56,30.12,10.0,NNW,8.1,-,N/A,,Clear,340,2013-09-13 04:52:00